User: anonymous   Login
Location: Turtle Rock Observatory
(36.6913°N, 81.9708°W)
Time: 17:59:45
(UTC-04:00)
Language:

Cosmos 1125 Rocket - Orbit

View from above orbital plane
View from above orbital plane
View from above satellite
View from above satellite

Ground track
Ground track

The orbit data is extracted from the following two-line orbital elements,

1 11511U 79078B   16176.47562801  .00000054  00000-0  27370-4 0  9996
2 11511  74.0372 252.7450 0016401 227.3369 132.6403 14.36715426927245
Epoch (UTC): 24 June 2016 11:24:54
Eccentricity: 0.0016401
inclination: 74.0372°
perigee height: 757 km
apogee height: 781 km
right ascension of ascending node: 252.7450°
argument of perigee: 227.3369°
revolutions per day: 14.36715426
mean anomaly at epoch: 132.6403°
orbit number at epoch: 92724

The dashed part of the orbit path shows where the satellite is in the earth's shadow,  

DLR